sat.trackr.live / text

‹ back to catalog

YAOGAN-39 01A

NORAD 57727 · 2023-130A

PAYLOAD ACTIVE UNKNOWN

§ Identity

Operator
Country
PRC
Launch date
2023-08-31
Launch site
XICLF
Launch vehicle
Mass (kg)
RCS (m²)

External: N2YO · Heavens-Above · Gunter

§ Orbital elements

Epoch: 2026-09-21T22:59:42.788832Z

Period
94.56 min
Inclination
35.0018°
Eccentricity
0.0003829
Mean motion
15.22772051 rev/d
Perigee alt
494.9 km
Apogee alt
500.1 km
Semi-major
6,875.6 km
B*
2.4709e-4
RAAN
240.1819°
Arg perigee
278.9036°
Mean anomaly
81.1245°
Rev number
17,047

§ Raw data

YAOGAN-39 01A1 57727U 23130A   26264.95813413  .00005881  00000+0  24709-3 0  99972 57727  35.0018 240.1819 0003829 278.9036  81.1245 15.22772051170471

JSON: /api/v1/satellites/57727 · /tle

For live sub-satellite position, see the globe view (requires WebGL).

§ Visibility from observer

Set your observer location to see the next 7 days of passes ≥ 10°. The values pass through the URL so the page stays shareable.

No JS? Fill the form by hand. The geolocation button needs JavaScript.